This demonstration page uses our WeatherBlox Daily Observations layout. Learn more.

Left ArrowRight Arrow

Hourly Observations for May 4, 2018

Temp ( °F °C ) Dew Point ( °F °C ) Humidity (%) Winds ( mph kmh ) Pressure ( in mb ) Visibility ( mi km ) Precip ( " mm )
12:53 am 00:53 Cloudy 52 11.1 49 9.4 89 89 NW 12 19 30.01 1016 10 16 0.00 0.00
1:53 am 01:53 Mostly Cloudy 50 10 47 8.3 89 89 NNW 13 20 30.04 1017 10 16 0.00 0.00
2:53 am 02:53 Clear 47 8.3 45 7.2 93 93 NW 10 17 30.06 1018 10 16 0.00 0.00
3:53 am 03:53 Clear 45 7.2 43 6.1 93 93 WNW 8 13 30.07 1018 10 16 0.00 0.00
4:53 am 04:53 Clear 46 7.8 44 6.7 93 93 WSW 7 11 30.09 1019 10 16 0.00 0.00
5:53 am 05:53 Clear 46 7.8 44 6.7 93 93 W 10 17 30.09 1019 10 16 0.00 0.00
6:53 am 06:53 Sunny 45 7.2 43 6.1 93 93 W 8 13 30.11 1020 9 14 0.00 0.00
7:53 am 07:53 Sunny 49 9.4 45 7.2 86 86 WNW 12 19 30.12 1020 10 16 0.00 0.00
8:53 am 08:53 Sunny 55 12.8 48 8.9 77 77 NW 14 22 30.13 1020 10 16 0.00 0.00
9:53 am 09:53 Sunny 62 16.7 50 10 65 65 NW 15 24 30.13 1020 10 16 0.00 0.00
10:53 am 10:53 Sunny 67 19.4 50 10 55 55 NNW 13 20 30.13 1020 10 16 0.00 0.00
11:53 am 11:53 Sunny 71 21.7 48 8.9 44 44 NNW 12 19 30.14 1021 10 16 0.00 0.00
12:53 pm 12:53 Sunny 73 22.8 44 6.7 35 35 WNW 7 11 30.14 1021 10 16 0.00 0.00
1:53 pm 13:53 Mostly Sunny 74 23.3 42 5.6 32 32 N 6 9 30.13 1020 10 16 0.00 0.00
2:53 pm 14:53 Mostly Sunny 75 23.9 42 5.6 31 31 N 6 9 30.12 1020 10 16 0.00 0.00
3:53 pm 15:53 Partly Cloudy 75 23.9 44 6.7 33 33 NNW 10 17 30.11 1020 10 16 0.00 0.00
4:53 pm 16:53 Mostly Sunny 76 24.4 44 6.7 32 32 undefined N/A 30.10 1019 10 16 0.00 0.00
5:53 pm 17:53 Mostly Sunny 76 24.4 43 6.1 31 31 NW 9 15 30.10 1019 10 16 0.00 0.00
6:53 pm 18:53 Sunny 75 23.9 43 6.1 32 32 NNE 6 9 30.10 1019 10 16 0.00 0.00
7:53 pm 19:53 Sunny 72 22.2 49 9.4 44 44 NNE 5 7 30.10 1019 10 16 0.00 0.00
8:53 pm 20:53 Clear 66 18.9 46 7.8 49 49 Calm 30.11 1020 10 16 0.00 0.00
9:53 pm 21:53 Clear 62 16.7 46 7.8 56 56 Calm 30.10 1019 10 16 0.00 0.00
10:53 pm 22:53 Clear 59 15 44 6.7 58 58 SE 5 7 30.11 1020 10 16 0.00 0.00
11:53 pm 23:53 Clear 59 15 42 5.6 54 54 SSW 6 9 30.10 1019 10 16 0.00 0.00

Powered by AerisWeather